Weather Service Report


104 
ASUS41 KPHI 281812
RWRPHI

REGIONAL WEATHER ROUNDUP
NATIONAL WEATHER SERVICE MOUNT HOLLY NJ
200 PM EDT SUN MAY 28 2017

NOTE:  "FAIR" INDICATES FEW OR NO CLOUDS BELOW 12,000 FEET WITH NO
SIGNIFICANT WEATHER AND/OR OBSTRUCTIONS TO VISIBILITY.

 * = STATION DOES NOT REPORT PRECIPITATION (E.G. RAIN, SNOW, ETC.) 
        OR FOG.

NJZ015>026-281900-
SOUTHERN NEW JERSEY
  
CITY           SKY/WX    TMP DP  RH WIND       PRES   REMARKS
POMONA         CLOUDY    72  56  57 SE13G18   29.92F                  
6HR MIN TEMP:  65; 6HR MAX TEMP:  73;                                

WILDWOOD*      SUNNY     69  61  75 E15       29.91F                  
MILLVILLE      CLOUDY    74  62  66 E12       29.90F                  
MOUNT HOLLY    PTSUNNY   74  57  55 VRB7      29.90F                  
TRENTON        CLOUDY    74  59  59 S12       29.90F                  
6HR MIN TEMP:  60; 6HR MAX TEMP:  76;                                


$$
NJZ001>014-281900-
NORTHERN NEW JERSEY
  
CITY           SKY/WX    TMP DP  RH WIND       PRES   REMARKS
SUSSEX         CLOUDY    71  57  61 VRB5      29.93F                  
ANDOVER*         N/A     74  57  55 VRB3      29.92F                  
MORRISTOWN     MOSUNNY   73  61  64 SE14G20   29.93F                  
NEWARK         PTSUNNY   71  57  61 SE9       29.95F                  
TETERBORO      PTSUNNY   71  57  61 S12       29.94F                  
CALDWELL       CLOUDY    72  56  57 SE10G18   29.95F                  
SOMERVILLE     CLOUDY    75  61  61 CALM      29.89F                  
ALLAIRE*       MOSUNNY   70  56  61 SE10      29.95F                  
TOMS RIVER*    MOSUNNY   73  57  57 SE14      29.94F                  

$$
PAZ043-044-047-054-055-060>062-066>071-281900-
EASTERN PENNSYLVANIA
  
CITY           SKY/WX    TMP DP  RH WIND       PRES   REMARKS
PHILADELPHIA   PTSUNNY   74  61  63 S9        29.90F                  
6HR MIN TEMP:  66; 6HR MAX TEMP:  76;                                

NORTH PHILA    CLOUDY    74  58  57 SE9       29.92F                  
BLUE BELL*     CLOUDY    70  59  68 S6        29.92S                  
DOYLESTOWN     CLOUDY    71  59  65 S5        29.90F                  
QUAKERTOWN*    CLOUDY    73  57  56 SE6       29.92S                  
PERKASIE*      CLOUDY    72  57  60 SE5       29.92F                  
POTTSTOWN      CLOUDY    72  57  59 VRB6      29.91F                  
LANCASTER      CLOUDY    73  63  70 S9        29.88F                  
COATESVILLE    CLOUDY    72  63  73 VRB6G14   29.91F                  
READING        CLOUDY    74  60  61 SE5       29.87F                  
6HR MIN TEMP:  60; 6HR MAX TEMP:  77;                                

ALLENTOWN      CLOUDY    76  54  46 S9        29.90F                  
6HR MIN TEMP:  63; 6HR MAX TEMP:  79;                                

MOUNT POCONO   CLOUDY    67  53  61 S14       29.94F                  
6HR MIN TEMP:  61; 6HR MAX TEMP:  69;                                

HAZLETON       PTSUNNY   70  52  52 S10G20    29.94F                  
LEHIGHTON      CLOUDY    72  54  53 SE6       29.90F                  
WILKES BARRE   CLOUDY    75  53  46 VRB7      29.88F                  

$$
DEZALL-MDZ008-012-015-019-020-281900-
DELAWARE AND EASTERN MARYLAND
  
CITY           SKY/WX    TMP DP  RH WIND       PRES   REMARKS
WILMINGTON     PTSUNNY   73  62  68 S10       29.90F                  
6HR MIN TEMP:  64; 6HR MAX TEMP:  74;                                

DOVER          CLOUDY    69  69 100 E13G18    29.88F                  
GEORGETOWN     CLOUDY    70  62  76 E10       29.88F                  
6HR MIN TEMP:  68; 6HR MAX TEMP:  75; 6HR PCP: TRACE;                

EASTON         PTSUNNY   77  59  53 SE12      29.90F                  
ABERDEEN       PTSUNNY   74  60  62 SE10      29.88F                  
PATUXENT       LGT RAIN  69  66  90 SE3       29.86F                  
OCEAN CITY     CLOUDY    64  62  93 E9        29.89F                  
WALLOPS ISLAND LGT RAIN  67  66  97 E8        29.87F                  
CAMBRIDGE      CLOUDY    73  61  64 SE9       29.86F                  
SALISBURY      CLOUDY    71  65  81 E12       29.87F                  

$$
PAZ001-021-NYZ056-072-MDZ011-DCZ001-281900-
OTHER NEARBY LOCATIONS
  
CITY           SKY/WX    TMP DP  RH WIND       PRES   REMARKS
HARRISBURG     CLOUDY    73  62  68 S6        29.87F                  
STATE COLLEGE  LGT RAIN  64  59  82 S10       29.89F                  
WILLIAMSPORT   CLOUDY    73  60  63 VRB3      29.85F                  
BINGHAMTON     CLOUDY    70  53  54 S10       29.89F                  
NEW YORK CITY  CLOUDY    69  56  62 S8G21     29.99S                  
BALTIMORE      LGT RAIN  69  63  81 E9        29.86F                  
WASHINGTON DC  LGT RAIN  68  64  87 SE3       29.89R                  

$$
  

Return to Home page


Western Regional Climate Center, wrcc@dri.edu